Temperature
19 18 18 17 17 16 16 15 15 14 14 14 14 13 13 13 13 13 13 13 13 13 13 13 13 13 14 14 14 14 15 15 15 15 16 16 16 17 17 17 17 17 17
19 18 18 17 17 16 16 15 15 14 14 13 13 13 13 13 12 12 12 13 13 13 13 13 13 13 13 13 14 14 14 14 15 15 15 15 16 17 17 17 17 17 17
19 18 18 17 17 16 16 15 14 14 14 13 13 13 13 13 13 13 12 12 12 12 12 12 13 13 13 13 13 14 14 14 14 14 14 15 15 16 17 17 17 17 17
19 18 18 17 17 16 16 15 14 14 13 13 13 13 12 12 12 12 12 12 12 12 12 12 12 13 13 13 13 13 13 14 14 14 14 14 15 15 16 17 17 17 17
19 19 18 18 17 16 16 15 14 14 13 13 13 12 12 12 12 12 12 12 12 12 12 12 12 12 12 13 13 13 13 13 13 14 14 14 14 15 15 16 17 17 17
19 19 18 17 17 16 16 15 14 14 13 13 13 13 12 12 12 12 12 12 12 12 12 12 12 12 12 12 12 13 13 13 13 14 14 14 14 14 15 15 16 16 17
19 19 18 17 17 16 16 15 15 14 14 13 13 13 12 12 12 12 12 12 12 12 12 12 12 12 12 12 12 12 12 13 13 13 13 14 14 14 14 14 15 15 16
19 19 18 18 17 16 16 15 15 14 14 13 13 13 13 12 12 12 12 12 11 11 11 12 12 12 12 12 12 12 12 12 13 13 13 13 14 14 14 14 14 15 15
19 19 18 18 17 16 16 15 15 15 14 14 13 13 13 12 12 12 12 12 11 11 11 11 12 12 12 12 12 12 12 12 12 13 13 13 13 14 14 14 14 14 14
19 19 18 18 17 17 16 16 15 15 14 14 14 13 13 13 12 12 12 12 11 11 11 11 11 11 12 12 12 12 12 12 12 12 13 13 13 13 14 14 14 14 14
20 19 18 18 17 17 16 16 15 15 15 14 14 13 13 13 13 12 12 12 12 11 11 11 11 11 11 11 12 12 12 12 12 12 12 13 13 13 13 14 14 14 14
20 19 19 18 17 17 16 16 16 15 15 15 14 14 13 13 13 13 12 12 12 11 11 11 11 11 11 11 11 12 12 12 12 12 12 12 13 13 13 13 13 14 14
20 19 19 18 18 17 17 16 16 16 15 15 14 14 14 13 13 13 13 12 12 12 12 11 11 11 11 11 11 11 12 12 12 12 12 12 12 13 13 13 13 13 13
20 19 19 18 18 17 17 17 16 16 16 15 15 15 14 14 14 13 13 13 12 12 12 12 12 11 11 11 11 11 12 12 12 12 12 12 12 12 13 13 13 13 13
19 19 19 18 18 18 17 17 17 16 16 16 15 15 15 14 14 14 13 13 13 12 12 12 12 12 12 11 11 11 11 12 12 12 12 12 12 12 12 12 13 13 13
20 19 19 19 18 18 18 17 17 17 16 16 16 15 15 14 14 14 13 13 13 13 12 12 12 12 12 12 11 11 11 12 12 12 12 12 12 12 12 12 12 12 13
20 19 19 19 18 18 18 18 17 17 16 16 16 15 15 15 14 14 14 13 13 13 13 12 12 12 12 12 12 11 11 11 11 12 12 12 12 12 12 12 12 12 12
19 19 19 18 18 18 18 17 17 17 16 16 16 15 15 15 14 14 14 14 13 13 13 13 12 12 12 12 12 11 11 11 11 11 12 12 12 12 12 12 12 12 12
19 19 19 18 18 18 18 17 17 17 16 16 16 15 15 15 15 14 14 14 13 13 13 13 13 12 12 12 12 12 12 12 12 11 11 12 12 12 11 12 12 12 12
19 19 18 18 18 18 17 17 17 16 16 16 16 15 15 15 15 14 14 14 14 13 13 13 13 13 12 12 12 12 12 12 12 12 11 12 12 12 11 11 11 12 12
18 18 18 18 18 17 17 17 17 16 16 15 15 15 15 14 14 14 14 14 14 14 13 13 13 13 13 12 12 12 12 12 12 12 12 12 12 12 12 11 11 12 12
18 18 18 17 17 17 17 17 16 16 15 15 15 14 14 14 14 14 14 13 13 13 13 13 13 13 13 12 12 12 12 12 12 12 12 12 12 12 12 12 12 12 12
18 17 17 17 17 16 16 16 15 15 15 14 14 14 13 13 13 13 13 13 13 13 13 13 13 13 13 13 12 12 12 12 12 12 12 12 12 12 12 12 12 12 12
17 17 17 17 16 16 16 15 15 14 14 14 13 13 13 13 13 12 12 12 12 12 12 12 12 12 12 12 12 12 12 12 12 12 12 12 12 12 12 12 12 12 11
17 17 16 16 16 15 15 14 14 14 13 13 12 12 12 12 12 12 11 11 11 11 11 11 11 12 12 12 12 12 12 12 12 12 12 12 12 12 12 12 12 12 11
16 16 16 15 15 14 14 13 13 13 12 12 12 11 11 11 11 11 11 11 11 11 11 11 11 11 11 11 12 12 12 12 12 11 11 11 11 11 11 11 11 11 11
Wind_Speed
7 7 7 7 7 5 5 4 4 3 3 2 2 3 4 4 4 4 6 7 7 7 4 3 3 3 2 3 3 2 2 2 1 1 2 3 3 4 4 4 5 6 8
7 7 6 6 6 5 5 5 4 3 2 1 1 1 2 2 3 4 5 7 7 7 4 3 3 3 2 3 2 1 1 2 1 1 1 2 2 3 5 4 5 6 6
11 8 7 7 6 6 5 5 4 3 2 1 2 3 3 3 4 5 5 5 7 6 5 4 3 3 2 2 3 1 1 2 2 2 2 2 3 2 2 3 4 5 6
10 9 8 8 7 6 6 6 4 3 1 1 2 1 1 2 3 3 4 6 6 6 5 4 4 3 2 2 3 2 1 2 2 2 2 2 2 2 2 2 2 4 6
11 10 9 9 8 7 6 5 4 2 1 0 1 0 1 2 3 3 5 5 5 5 5 4 4 4 3 3 3 3 2 2 2 2 2 2 2 2 2 2 2 2 3
9 9 8 8 6 5 5 5 4 3 2 1 1 1 1 2 3 4 5 5 4 4 6 5 4 4 3 3 3 3 3 2 3 3 3 3 3 3 3 3 3 3 2
9 9 9 8 7 7 6 5 5 4 3 2 2 2 2 2 2 3 4 4 4 4 6 5 4 4 4 4 3 3 3 3 3 4 4 4 4 3 3 3 3 3 2
9 10 10 9 8 8 7 6 5 4 4 3 3 2 2 2 2 3 3 4 3 4 5 5 5 5 5 4 3 3 3 3 3 4 4 3 4 4 4 4 3 2 2
9 9 9 8 8 8 8 7 6 5 4 4 3 2 3 2 3 4 3 3 4 4 5 6 5 6 5 4 3 2 3 3 3 4 4 3 4 4 4 4 4 5 4
8 8 8 8 7 8 7 6 6 6 5 4 3 2 2 3 3 2 4 4 5 5 6 6 6 6 5 4 3 3 4 3 3 3 3 4 3 4 4 4 4 5 5
9 8 8 7 7 6 6 5 5 5 4 4 3 2 2 2 2 2 3 3 4 4 5 5 5 5 5 4 3 4 4 4 4 4 4 4 4 3 3 4 4 4 5
8 8 8 7 6 6 6 6 6 6 6 5 4 3 2 2 2 3 3 3 4 4 4 5 5 5 5 4 4 4 4 4 4 5 4 5 4 3 3 3 4 4 5
7 6 6 7 7 7 6 6 6 7 6 5 4 3 3 3 3 4 4 3 3 4 4 4 5 5 5 4 4 4 4 4 5 4 5 5 4 4 3 3 4 4 4
8 7 7 7 7 7 7 7 6 6 6 6 5 5 5 5 5 4 3 3 4 4 4 4 5 5 5 5 4 4 4 5 5 5 4 5 4 4 4 4 4 4 4
6 7 7 7 6 6 6 6 6 7 6 6 6 7 6 5 4 4 4 4 4 4 4 4 5 5 5 4 5 4 4 4 5 5 5 5 6 6 4 4 4 4 4
7 7 6 6 5 6 6 6 6 7 6 6 7 6 5 5 5 5 4 4 4 4 4 5 5 6 5 8 8 6 4 4 5 6 6 6 6 6 6 5 5 6 6
6 6 6 6 6 5 5 5 5 4 4 4 5 5 5 5 6 5 4 5 5 4 5 5 5 6 8 10 9 8 4 4 5 5 5 5 5 5 4 5 5 5 7
6 5 5 4 3 3 3 3 3 3 2 2 3 4 4 5 5 5 5 6 5 5 5 6 6 6 8 9 8 8 4 4 5 5 5 5 5 5 4 3 4 4 5
6 5 5 4 3 2 3 4 3 2 1 1 3 4 4 5 5 5 6 6 5 5 5 6 6 6 8 9 8 6 3 4 6 6 5 5 5 7 6 3 4 5 5
6 5 5 5 4 2 4 6 3 2 1 3 4 4 3 4 5 6 6 5 5 6 6 6 6 6 7 9 9 6 2 4 5 5 5 7 7 8 6 4 4 6 6
6 7 7 6 4 3 5 6 4 3 3 3 3 3 3 4 4 4 4 4 5 5 5 6 7 6 7 8 9 7 3 4 5 5 5 5 9 10 9 7 6 9 7
7 8 8 6 4 4 6 6 3 3 3 3 3 4 4 4 4 4 5 4 4 4 5 5 7 6 6 6 8 8 6 5 4 5 5 6 10 11 11 8 8 10 8
7 7 8 7 5 5 5 5 4 4 3 4 4 5 6 6 5 4 4 4 3 3 4 4 5 6 5 5 8 8 8 7 5 6 9 10 12 11 8 8 9 7 4
7 7 8 8 6 5 6 5 5 5 5 5 5 6 6 7 6 5 4 3 3 3 3 4 4 5 5 5 5 5 5 6 5 6 8 10 10 7 7 7 5 4 4
6 7 8 8 7 6 6 6 6 6 6 6 6 6 6 6 6 5 4 3 3 2 2 2 3 4 6 8 8 5 4 4 5 5 4 4 4 5 5 4 4 4 4
8 9 9 8 7 6 6 6 6 6 6 5 6 5 5 5 5 5 5 6 6 8 8 7 5 4 6 10 11 9 8 8 7 3 3 5 6 6 6 6 6 5 5
Wind_Direction
169 157 149 138 124 111 104 101 89 64 53 31 10 355 343 336 342 341 350 348 344 340 338 333 330 332 317 293 282 264 268 262 220 230 278 277 246 234 228 215 208 208 210
148 148 143 136 129 121 112 104 102 95 73 51 309 285 304 309 315 327 345 351 349 343 345 343 331 330 330 327 312 270 257 256 202 175 201 288 299 262 234 209 208 209 202
159 159 152 147 136 129 132 126 128 120 96 52 21 6 4 349 347 342 338 333 345 349 344 341 339 338 339 320 311 288 236 250 238 192 187 194 234 278 288 236 218 202 198
159 160 156 154 153 158 149 139 142 139 128 85 55 31 3 329 301 303 313 324 338 345 347 344 344 341 338 321 308 324 257 234 246 242 221 216 201 203 296 305 253 214 205
166 167 166 165 167 167 157 152 153 163 190 173 132 64 318 289 298 314 329 333 330 333 337 336 341 337 324 312 309 314 296 239 227 222 222 233 228 212 204 265 293 273 227
168 166 165 159 167 172 164 160 165 199 229 250 258 185 258 298 321 324 327 326 319 319 326 326 325 322 317 305 297 294 295 272 255 240 217 207 213 209 200 227 254 258 253
168 167 166 170 177 182 183 179 182 213 240 251 253 229 237 260 282 293 302 312 315 313 315 323 316 312 304 297 289 286 288 278 268 255 239 227 227 212 197 209 231 242 263
179 178 182 183 185 188 189 189 196 214 228 233 246 244 249 252 270 282 286 295 295 292 304 317 318 314 311 309 301 292 283 277 269 265 252 237 238 223 208 197 191 225 253
187 185 187 186 188 190 196 199 199 209 219 226 231 250 268 262 277 292 298 302 304 308 322 326 327 326 324 317 314 302 297 294 276 269 262 246 240 231 222 210 195 194 220
188 186 186 188 192 197 202 201 198 202 213 216 222 226 255 265 277 298 316 315 318 323 327 331 333 334 334 331 328 314 307 311 298 285 284 271 254 243 226 219 214 204 204
188 190 193 195 193 194 196 199 203 203 211 210 211 219 254 262 280 299 300 305 312 320 328 330 334 337 339 340 339 325 324 325 314 309 300 287 273 252 236 223 216 209 203
186 188 190 191 194 200 204 202 205 207 214 210 206 217 231 242 272 282 287 300 309 315 321 327 335 338 341 340 336 324 327 318 314 310 306 297 293 271 248 228 224 219 210
183 183 185 192 201 208 210 208 208 213 212 202 202 216 226 238 254 266 280 294 302 313 322 326 326 325 325 326 322 309 308 301 295 295 294 288 290 282 263 242 230 225 221
184 185 197 211 217 218 216 214 218 213 206 200 204 217 228 231 240 256 273 283 292 301 308 308 307 309 309 308 306 306 304 303 299 295 291 283 270 267 263 254 239 228 223
187 192 202 216 225 229 229 224 222 216 207 201 211 224 231 231 240 256 268 279 291 292 293 300 308 310 305 300 300 297 299 301 304 304 298 290 283 277 264 256 234 219 220
189 195 201 205 213 220 223 222 223 219 205 208 221 230 231 233 240 251 260 275 286 290 294 295 299 304 304 310 311 307 296 301 302 304 307 303 295 297 296 288 261 229 222
181 184 189 197 208 214 206 202 212 199 191 216 233 236 234 239 246 252 260 268 272 277 287 288 289 291 293 303 310 314 305 299 298 297 301 310 314 321 304 299 298 274 253
171 174 180 186 202 205 191 181 166 160 183 227 254 252 245 251 256 257 261 263 262 266 272 278 281 283 291 300 303 312 307 301 305 301 293 294 302 304 298 290 297 287 278
169 171 167 157 148 152 153 128 118 126 140 261 265 259 249 254 262 264 263 261 260 266 266 271 276 280 289 296 295 303 299 299 303 303 300 295 292 299 302 286 287 292 288
146 143 131 111 107 109 117 104 91 63 323 274 264 259 252 252 260 263 264 264 258 263 272 278 275 271 278 289 289 290 264 285 295 300 299 296 292 296 297 275 271 278 280
132 125 111 96 93 100 101 88 65 13 309 302 303 299 284 270 267 274 274 275 279 282 282 282 286 282 277 287 288 278 243 259 281 291 294 293 298 297 291 276 258 262 268
125 122 111 100 80 80 91 80 39 329 336 3 0 335 318 312 314 290 292 291 292 297 296 295 299 297 291 286 286 283 263 255 258 274 281 285 295 298 293 281 268 270 272
136 127 120 106 78 64 79 73 7 353 14 22 1 342 339 338 334 322 314 317 315 307 306 306 304 306 308 304 297 292 283 273 261 270 280 290 296 300 296 282 280 279 261
141 131 119 108 86 63 60 52 19 25 45 31 7 355 353 348 348 349 346 344 341 333 330 328 320 318 322 319 313 302 296 292 285 286 294 300 300 297 288 289 285 266 250
134 126 121 114 103 80 58 39 32 46 49 35 17 6 2 354 351 355 356 355 356 13 6 341 329 341 335 324 319 308 301 295 288 303 312 320 322 322 315 307 296 281 268
130 123 120 116 107 86 60 34 30 51 56 38 18 8 3 359 359 358 358 3 11 14 23 25 21 358 346 348 354 347 334 331 332 338 325 319 315 311 306 302 300 289 274
Height
1526 1527 1527 1527 1526 1525 1524 1522 1521 1519 1517 1515 1513 1511 1509 1507 1505 1504 1502 1500 1498 1496 1495 1494 1494 1493 1493 1493 1493 1493 1494 1495 1496 1497 1498 1500 1501 1503 1506 1508 1510 1512 1515
1524 1526 1526 1526 1525 1524 1523 1521 1520 1518 1516 1514 1512 1510 1508 1506 1505 1503 1501 1499 1497 1495 1494 1493 1492 1491 1491 1491 1491 1491 1492 1492 1494 1495 1496 1496 1499 1500 1502 1504 1506 1509 1511
1522 1524 1524 1524 1524 1523 1522 1520 1519 1517 1515 1513 1512 1510 1508 1506 1504 1502 1500 1498 1496 1494 1492 1491 1490 1489 1489 1489 1489 1489 1490 1490 1491 1492 1494 1495 1495 1496 1498 1500 1502 1505 1507
1521 1522 1523 1523 1522 1522 1521 1519 1518 1517 1515 1513 1511 1509 1507 1505 1503 1501 1499 1497 1495 1493 1491 1490 1489 1488 1487 1487 1487 1487 1488 1488 1489 1489 1491 1493 1493 1495 1495 1497 1499 1501 1503
1519 1520 1521 1521 1521 1520 1520 1519 1517 1516 1514 1513 1511 1509 1507 1505 1503 1500 1498 1496 1494 1492 1490 1489 1487 1486 1485 1485 1485 1485 1485 1486 1486 1487 1488 1489 1491 1492 1494 1494 1496 1498 1499
1518 1519 1519 1520 1519 1519 1519 1518 1517 1515 1514 1512 1510 1508 1506 1504 1502 1499 1497 1495 1493 1491 1489 1487 1486 1484 1483 1483 1482 1482 1482 1483 1483 1484 1485 1486 1487 1489 1490 1491 1492 1494 1496
1516 1517 1518 1518 1518 1518 1517 1517 1516 1514 1513 1511 1510 1508 1505 1503 1501 1499 1496 1494 1492 1490 1488 1486 1484 1483 1481 1481 1480 1480 1480 1480 1480 1481 1482 1483 1484 1485 1487 1489 1490 1491 1492
1514 1515 1516 1516 1516 1516 1516 1516 1515 1514 1512 1511 1509 1507 1505 1503 1501 1498 1496 1494 1491 1489 1487 1485 1483 1481 1480 1479 1479 1478 1478 1478 1478 1478 1478 1479 1480 1482 1483 1485 1487 1487 1489
1512 1513 1514 1515 1515 1515 1515 1514 1514 1513 1511 1510 1508 1506 1504 1502 1500 1498 1495 1493 1491 1488 1486 1484 1482 1480 1479 1478 1477 1476 1475 1475 1475 1475 1475 1476 1477 1478 1479 1481 1483 1485 1485
1511 1511 1512 1513 1513 1514 1513 1513 1512 1512 1510 1509 1507 1505 1503 1501 1499 1497 1494 1492 1490 1487 1485 1483 1481 1479 1477 1476 1475 1474 1473 1473 1472 1472 1472 1472 1473 1474 1475 1476 1478 1480 1481
1508 1510 1511 1512 1512 1512 1512 1512 1511 1510 1509 1508 1506 1505 1503 1501 1498 1496 1493 1491 1489 1486 1484 1482 1479 1477 1476 1474 1473 1472 1471 1470 1469 1469 1469 1469 1469 1470 1471 1472 1473 1475 1477
1507 1508 1509 1510 1510 1511 1510 1510 1510 1509 1508 1507 1505 1504 1502 1500 1497 1495 1493 1490 1488 1485 1483 1481 1478 1476 1474 1473 1471 1470 1469 1468 1467 1466 1466 1466 1466 1467 1467 1468 1469 1471 1472
1505 1506 1507 1508 1509 1509 1509 1509 1508 1508 1507 1506 1504 1503 1501 1499 1497 1494 1492 1490 1487 1485 1482 1480 1477 1475 1473 1471 1470 1468 1467 1465 1465 1464 1463 1463 1463 1463 1464 1464 1465 1467 1468
1503 1504 1505 1506 1507 1507 1507 1507 1507 1506 1505 1504 1503 1501 1500 1498 1496 1493 1491 1489 1486 1484 1482 1479 1477 1474 1472 1470 1468 1466 1465 1463 1462 1461 1461 1460 1460 1460 1461 1461 1462 1463 1464
1501 1502 1503 1504 1505 1505 1505 1505 1505 1504 1504 1503 1502 1500 1499 1497 1495 1492 1490 1488 1486 1483 1481 1478 1476 1474 1471 1469 1467 1465 1463 1461 1460 1459 1458 1458 1458 1457 1457 1458 1458 1459 1460
1499 1500 1501 1502 1502 1503 1503 1503 1503 1503 1502 1501 1500 1499 1497 1496 1494 1491 1489 1487 1485 1483 1480 1478 1475 1473 1470 1468 1466 1463 1461 1459 1458 1457 1456 1455 1455 1455 1455 1455 1455 1455 1456
1497 1498 1499 1500 1500 1501 1501 1501 1501 1501 1500 1499 1498 1497 1495 1494 1492 1490 1488 1486 1484 1481 1479 1477 1474 1472 1470 1467 1465 1462 1460 1458 1456 1454 1453 1452 1452 1452 1451 1451 1451 1451 1452
1495 1496 1497 1498 1498 1499 1499 1499 1499 1499 1498 1497 1496 1495 1493 1492 1490 1488 1486 1484 1482 1480 1478 1475 1473 1471 1469 1466 1464 1461 1459 1457 1455 1453 1452 1450 1449 1448 1448 1447 1447 1447 1448
1493 1494 1495 1496 1497 1497 1497 1497 1497 1497 1496 1495 1494 1492 1491 1489 1487 1486 1484 1482 1480 1478 1476 1474 1472 1469 1467 1465 1462 1460 1458 1456 1454 1452 1450 1448 1447 1446 1445 1444 1443 1443 1444
1491 1492 1493 1494 1495 1495 1496 1495 1495 1494 1493 1492 1491 1490 1488 1486 1485 1483 1481 1479 1477 1475 1474 1472 1470 1468 1465 1463 1461 1459 1456 1454 1452 1450 1448 1446 1445 1443 1442 1441 1440 1439 1439
1489 1490 1491 1492 1493 1493 1494 1493 1493 1492 1491 1489 1488 1487 1485 1483 1482 1480 1478 1476 1474 1472 1471 1469 1467 1465 1463 1461 1459 1457 1454 1452 1450 1448 1446 1444 1442 1441 1439 1438 1437 1436 1435
1487 1488 1489 1490 1491 1491 1491 1490 1490 1489 1488 1487 1485 1483 1482 1480 1478 1476 1474 1473 1471 1469 1467 1466 1464 1463 1461 1459 1457 1455 1452 1450 1448 1446 1444 1441 1439 1438 1436 1435 1434 1433 1432
1484 1486 1487 1488 1488 1488 1488 1488 1487 1486 1485 1484 1482 1480 1479 1477 1475 1473 1471 1469 1468 1466 1464 1463 1461 1459 1458 1456 1454 1452 1450 1448 1446 1443 1441 1439 1437 1435 1433 1432 1431 1430 1429
1482 1483 1484 1485 1486 1486 1485 1485 1484 1483 1482 1480 1479 1477 1475 1473 1472 1470 1468 1466 1464 1463 1461 1460 1458 1456 1454 1453 1451 1449 1447 1445 1443 1441 1439 1437 1435 1433 1431 1429 1428 1427 1426
1479 1480 1482 1482 1483 1483 1483 1482 1481 1480 1479 1478 1476 1475 1473 1471 1469 1468 1466 1464 1463 1461 1460 1458 1456 1454 1451 1450 1448 1446 1444 1442 1441 1438 1436 1434 1432 1430 1428 1427 1425 1424 1423
1476 1477 1479 1480 1480 1480 1480 1480 1479 1478 1477 1475 1474 1472 1470 1469 1467 1465 1465 1463 1462 1460 1458 1456 1454 1452 1450 1448 1445 1443 1441 1439 1438 1436 1434 1432 1430 1428 1426 1424 1422 1421 1420